Location: Ferris
(32.5340°N, 96.6656°W)
Time: 10:00:01
(UTC+00:00)

COSMOS 2455 - Pass Details

Date: 11 February 2026
Orbit: 899 x 909 km, 67.1° (Epoch: 8 March)

Event Time Altitude Azimuth Distance (km) Brightness Sun altitude
Exits shadow 12:12:54 13° 248° (WSW) 2,361 4.5 -13.2°
Maximum altitude 12:17:19 29° 303° (WNW) 1,587 3.6 -12.3°
Drops below altitude 10° 12:22:31 10° 3° (N) 2,595 5.2 -11.2°
Sets 12:25:23 0° 14° (NNE) 3,540 6.0 -10.6°
